Regional Weather Roundup
Issued by NWS

Home | Current Version | Previous Version | Graphics & Text | Print | Product List | Glossary On
Versions: 1 2 3 4 5 6 7 8 9 10 11 12 13 14 15 16 17 18 19 20 21 22 23 24 25 26 27 28 29 30 31 32 33 34 35 36 37 38 39 40 41 42 43 44 45 46 47 48 49 50
781
ASUS43 KLMK 281002
RWRKY
KENTUCKY REGIONAL WEATHER ROUNDUP
NATIONAL WEATHER SERVICE LOUISVILLE KY
600 AM EDT WED SEP 28 2016

NOTE "FAIR" INDICATES FEW OR NO CLOUDS BELOW 12,000 FEET
WITH NO SIGNIFICANT WEATHER AND/OR OBSTRUCTIONS TO VISIBILITY.

KYZ001>023-026-027-061>063-070>075-281100-
WESTERN AND SOUTH CENTRAL KENTUCKY

CITY           SKY/WX    TMP DP  RH WIND       PRES   REMARKS
PADUCAH        CLEAR     60  49  66 SW9       29.85F
HENDERSON      CLEAR     61  48  63 SW12      29.81F
OWENSBORO      NOT AVBL
HOPKINSVILLE   CLEAR     55  49  78 S5        29.89F
BOWLING GREEN  CLEAR     56  47  71 S5        29.90F
GLASGOW        NOT AVBL
$$

KYZ024-025-028>034-038-045-046-053-281100-
NORTH CENTRAL KENTUCKY

CITY           SKY/WX    TMP DP  RH WIND       PRES   REMARKS
LOUISVILLE/SDF MOCLDY    63  46  54 S7        29.83F
LOUISVILLE/LOU MOCLDY    60  48  64 S6        29.85S
FORT KNOX      PTCLDY    56  48  74 S9        29.84S
$$

KYZ035>037-039>044-047>052-055>060-089>105-281100-
NORTHEAST KENTUCKY

CITY           SKY/WX    TMP DP  RH WIND       PRES   REMARKS
LEXINGTON      CLEAR     55  45  68 S8        29.89S
COVINGTON      MOCLDY    57  48  72 S12       29.82F
FRANKFORT      CLEAR     56  45  66 S6        29.86F
$$

KYZ054-064>069-076>088-106>120-281100-
SOUTHEAST KENTUCKY

CITY           SKY/WX    TMP DP  RH WIND       PRES   REMARKS
JACKSON        CLEAR     50  46  86 CALM      29.94R
LONDON         CLEAR     46  43  89 CALM      29.95R
SOMERSET       CLEAR     46  46 100 CALM      29.95S
MIDDLESBORO    CLEAR     46  46 100 CALM      29.98S
MONTICELLO     SUNNY     46  45  96 W8        29.96R
$$





USA.gov is the U.S. government's official web portal to all federal, state and local government web resources and services.